Regional Weather Roundup
Issued by NWS

Home | Current Version | Previous Version | Graphics & Text | Print | Product List | Glossary On
Versions: 1 2 3 4 5 6 7 8 9 10 11 12 13 14 15 16 17 18 19 20 21 22 23 24 25 26 27 28 29 30 31 32 33 34 35 36 37 38 39 40 41 42 43 44 45 46 47 48 49 50
551
ASUS43 KDMX 191606
RWRIA

WEATHER ROUNDUP FOR IOWA
NATIONAL WEATHER SERVICE DES MOINES IA
1000 AM CST MON FEB 19 2018

NOTE: "FAIR" INDICATES FEW OR NO CLOUDS BELOW 12,000 FEET WITH NO
SIGNIFICANT WEATHER AND/OR OBSTRUCTIONS TO VISIBILITY.

* - THESE STATIONS ARE NOT NWS STATIONS...THUS NOT UNDER NWS
QUALITY CONTROL.  THEY ALSO DO NOT REPORT WEATHER SUCH
AS PRECIPITATION OR FOG.

IAZ001>003-012>014-020>022-031>034-043>046-191700-
   NORTHWEST IOWA

CITY           SKY/WX    TMP DP  RH WIND       PRES   REMARKS
CARROLL *      CLOUDY    27  27 100 N17G24    29.74R FOG     WCI  14
CHEROKEE *     LGT SNOW  20  19  95 N12       29.82R WCI   8
DENISON *      SUNNY     25  25 100 MISG      29.78R FOG
LE MARS *      LGT SNOW  19  18  93 MISG      29.83F
ORANGE CITY *  MIX PCPN  19  18  93 N13G21    29.82F WCI   7
SHELDON *      LGT SNOW  18  16  93 MISG      29.81F
SIOUX CITY     CLOUDY    20  17  88 N20       29.85S WCI   4
SPENCER        LGT SNOW  19  16  88 MISG      29.79F FOG
STORM LAKE *   FOG       21  21 100 MISG      29.75S VSB 1
$$

IAZ055>058-069>071-079>083-090>094-191700-
   SOUTHWEST IOWA

CITY           SKY/WX    TMP DP  RH WIND       PRES   REMARKS
ATLANTIC *     CLOUDY    30  30 100 N14G23    29.73S FOG     WCI  20
AUDUBON *      MIX PCPN  28  27  93 N10G17    29.74R WCI  19
CLARINDA *     LGT SNOW  32  32 100 N16       29.75R WCI  21
COUNCIL BLFS * CLOUDY    27  27 100 N12G24    29.76S FOG     WCI  16
CRESTON *      CLOUDY    32  32 100 N15       29.68R FOG     WCI  22
HARLAN  *      CLOUDY    27  27 100 N14G23    29.78R WCI  15
LAMONI         FOG       55  54  96 S9        29.63R VSB 1/2
RED OAK *      CLOUDY    30  30 100 N14G20    29.75R FOG     WCI  20
SHENANDOAH *   CLOUDY    30  30 100 N10G17    29.77R FOG     WCI  21
$$

IAZ047>049-059>061-072>074-084-191700-
   CENTRAL IOWA

CITY           SKY/WX    TMP DP  RH WIND       PRES   REMARKS
AMES           FOG       35  33  92 N12       29.69S VSB 1   WCI  27
ANKENY *       FOG       37  36  93 N7        29.68F VSB 3/4 WCI  32
BOONE *        FOG       32  32 100 N15       29.68S VSB 3/4 WCI  22
CHARITON *     FOG       50  50 100 S12       29.63R VSB 1/4
DES MOINES     DRIZZLE   36  35  96 NW9       29.68R FOG     WCI  29
GRINNELL*      FOG       43  42  97 SE8       29.67S VSB<1/4
KNOXVILLE *    CLOUDY    46  46 100 CALM      29.63S FOG
MARSHALLTOWN   CLOUDY    36  36 100 NE9       29.68S FOG     WCI  29
NEWTON *       FOG       43  43 100 CALM      29.67R VSB<1/4
PELLA *        RAIN      46  46  98 SE3       29.66S
PERRY *        CLOUDY    32  32 100 N13       29.70R FOG     WCI  22
$$

IAZ004>006-015-016-023>025-035-036-191700-
   NORTH CENTRAL IOWA

CITY           SKY/WX    TMP DP  RH WIND       PRES   REMARKS
ALGONA *       LGT SNOW  27 N/A N/A MISG      29.75S VSB 1
CLARION *      CLOUDY    30  30 100 NE21      29.70F FOG     WCI  17
ESTHERVILLE    CLOUDY    18  16  92 MISG      29.80S FOG
FORT DODGE *   CLOUDY    29  27  92 N12G24    29.73F WCI  19
MASON CITY     LGT SNOW  29  27  92 N21       29.75S FOG     WCI  16
FOREST CITY *  MIX PCPN  30  30 100 NE12G18   29.75S WCI  21
WEBSTER CITY * CLOUDY    32  32 100 N14G21    29.68F FOG     WCI  22
IOWA FALLS *   LGT RAIN  34  33  96 NE13      29.69F VSB 1   WCI  25
$$

IAZ007>011-017>019-026>030-037>042-050>054-066-191700-
   NORTHEAST IOWA

CITY           SKY/WX    TMP DP  RH WIND       PRES   REMARKS
CEDAR RAPIDS   FOG       43  42  97 SE7       29.68F VSB 1/4
CHARLES CITY * MIX PCPN  34  34 100 NE13      29.73F VSB 1   WCI  25
CLINTON *      LGT RAIN  38  38 100 MISG        N/A  VSB 1/4
DECORAH *      CLOUDY    36  34  93 NE6       29.75S FOG     WCI  31
DUBUQUE        CLOUDY    37  36  96 E8        29.74F FOG     WCI  31
MONTICELLO *   LGT RAIN  39  39 100 E8        29.72F VSB 3/4 WCI  34
OELWEIN *      LGT RAIN  36  36 100 E10       29.71F VSB 3/4 WCI  28
WATERLOO       MIX PCPN  35  35 100 N6        29.71S VSB 3/4 WCI  30
$$

IAZ064-065-067-068-078-191700-
   EAST CENTRAL IOWA

CITY           SKY/WX    TMP DP  RH WIND       PRES   REMARKS
DAVENPORT      CLOUDY    46  43  89 SE12      29.74F FOG
IOWA CITY      FOG       42  40  92 SE5       29.71F VSB 1/4
MT. PLEASANT * CLOUDY    50  50 100 S10       29.71S FOG
MUSCATINE *    FOG       45  45 100 CALM      29.72F VSB<1/4
QUAD CITIES    LGT RAIN  46  45  96 SE6       29.72F
$$

IAZ062-063-075>077-085>089-095>099-191700-
   SOUTHEAST IOWA

CITY           SKY/WX    TMP DP  RH WIND       PRES   REMARKS
BURLINGTON     CLOUDY    52  51  97 S14       29.72S
FAIRFIELD *    CLOUDY    48  48 100 S12       29.67F FOG
FORT MADISON * CLOUDY    52  52 100 S10       29.73F
KEOKUK *         N/A     57  57 100 S15G21    29.72F
OSKALOOSA *    FOG       45  44  98 SE9       29.65F VSB 1/4
OTTUMWA        LGT RAIN  51  50  96 S16       29.65F
WASHINGTON *   FOG       46  46 100 S10       29.70F VSB 1
$$

ABBREVIATIONS USED IN REMARKS
   TC - TEMPERATURES IN CELSIUS
  WCI - WIND CHILL INDEX
   HX - HEAT INDEX
  VSB - VISIBILITY
$$





USA.gov is the U.S. government's official web portal to all federal, state and local government web resources and services.